Year,Month,Day,Hour,Minute,Value (Times are PST for windgust in km/hr)
2009,05,05,00,00,30.60
2009,05,05,00,05,19.30
2009,05,05,00,06,29.00
2009,05,05,00,07,22.50
2009,05,05,00,08,30.60
2009,05,05,00,09,22.50
2009,05,05,00,10,30.60
2009,05,05,00,11,33.80
2009,05,05,00,12,22.50
2009,05,05,00,13,33.80
2009,05,05,00,14,37.00
2009,05,05,00,15,16.10
2009,05,05,00,16,20.90
2009,05,05,00,17,22.50
2009,05,05,00,18,17.70
2009,05,05,00,19,19.30
2009,05,05,00,20,19.30
2009,05,05,00,21,24.20
2009,05,05,00,22,30.60
2009,05,05,00,23,19.30
2009,05,05,00,24,20.90
2009,05,05,00,25,14.50
2009,05,05,00,26,11.30
2009,05,05,00,27,14.50
2009,05,05,00,28,11.30
2009,05,05,00,29,9.60
2009,05,05,00,30,12.90
2009,05,05,00,31,11.30
2009,05,05,00,32,12.90
2009,05,05,00,33,12.90
2009,05,05,00,34,9.60
2009,05,05,00,35,8.10
2009,05,05,00,36,12.90
2009,05,05,00,37,16.10
2009,05,05,00,38,12.90
2009,05,05,00,39,14.50
2009,05,05,00,40,11.30
2009,05,05,00,41,8.10
2009,05,05,00,42,8.10
2009,05,05,00,43,9.60
2009,05,05,00,44,9.60
2009,05,05,00,45,8.10
2009,05,05,00,46,8.10
2009,05,05,00,47,9.60
2009,05,05,00,48,14.50
2009,05,05,00,49,16.10
2009,05,05,00,50,8.10
2009,05,05,00,51,6.40
2009,05,05,00,52,11.30
2009,05,05,00,53,9.60
2009,05,05,00,54,8.10
2009,05,05,00,55,9.60
2009,05,05,00,56,9.60
2009,05,05,00,57,6.40
2009,05,05,00,58,16.10
2009,05,05,00,59,11.30
2009,05,05,01,00,11.30
2009,05,05,01,01,12.90
2009,05,05,01,02,9.60
2009,05,05,01,03,14.50
2009,05,05,01,04,16.10
2009,05,05,01,05,11.30
2009,05,05,01,06,9.60
2009,05,05,01,07,12.90
2009,05,05,01,08,11.30
2009,05,05,01,09,9.60
2009,05,05,01,10,11.30
2009,05,05,01,11,9.60
2009,05,05,01,12,8.10
2009,05,05,01,13,8.10
2009,05,05,01,14,8.10
2009,05,05,01,15,9.60
2009,05,05,01,16,9.60
2009,05,05,01,17,9.60
2009,05,05,01,18,11.30
2009,05,05,01,19,11.30
2009,05,05,01,20,11.30
2009,05,05,01,21,12.90
2009,05,05,01,22,9.60
2009,05,05,01,23,11.30
2009,05,05,01,24,8.10
2009,05,05,01,25,8.10
2009,05,05,01,26,6.40
2009,05,05,01,27,9.60
2009,05,05,01,28,11.30
2009,05,05,01,29,8.10
2009,05,05,01,30,6.40
2009,05,05,01,31,8.10
2009,05,05,01,32,8.10
2009,05,05,01,33,6.40
2009,05,05,01,34,3.20
2009,05,05,01,35,6.40
2009,05,05,01,36,6.40
2009,05,05,01,37,8.10
2009,05,05,01,38,9.60
2009,05,05,01,39,9.60
2009,05,05,01,40,8.10
2009,05,05,01,41,8.10
2009,05,05,01,42,8.10
2009,05,05,01,43,6.40
2009,05,05,01,44,6.40
2009,05,05,01,45,3.20
2009,05,05,01,46,6.40
2009,05,05,01,47,4.80
2009,05,05,01,48,4.80
2009,05,05,01,49,8.10
2009,05,05,01,50,8.10
2009,05,05,01,51,12.90
2009,05,05,01,52,8.10
2009,05,05,01,53,8.10
2009,05,05,01,54,9.60
2009,05,05,01,55,6.40
2009,05,05,01,56,3.20
2009,05,05,01,57,9.60
2009,05,05,01,58,11.30
2009,05,05,01,59,11.30
2009,05,05,02,00,9.60
2009,05,05,02,01,9.60
2009,05,05,02,02,9.60
2009,05,05,02,03,8.10
2009,05,05,02,04,4.80
2009,05,05,02,05,9.60
2009,05,05,02,06,9.60
2009,05,05,02,07,17.70
2009,05,05,02,08,8.10
2009,05,05,02,09,9.60
2009,05,05,02,10,11.30
2009,05,05,02,11,9.60
2009,05,05,02,12,9.60
2009,05,05,02,13,8.10
2009,05,05,02,14,6.40
2009,05,05,02,15,4.80
2009,05,05,02,16,4.80
2009,05,05,02,17,9.60
2009,05,05,02,18,9.60
2009,05,05,02,19,8.10
2009,05,05,02,20,8.10
2009,05,05,02,21,9.60
2009,05,05,02,22,9.60
2009,05,05,02,23,4.80
2009,05,05,02,24,3.20
2009,05,05,02,25,8.10
2009,05,05,02,26,6.40
2009,05,05,02,27,11.30
2009,05,05,02,28,17.70
2009,05,05,02,29,17.70
2009,05,05,02,30,11.30
2009,05,05,02,31,8.10
2009,05,05,02,32,14.50
2009,05,05,02,33,16.10
2009,05,05,02,34,20.90
2009,05,05,02,35,16.10
2009,05,05,02,36,12.90
2009,05,05,02,37,14.50
2009,05,05,02,38,11.30
2009,05,05,02,39,17.70
2009,05,05,02,40,32.20
2009,05,05,02,41,17.70
2009,05,05,02,42,16.10
2009,05,05,02,43,12.90
2009,05,05,02,44,16.10
2009,05,05,02,45,14.50
2009,05,05,02,46,14.50
2009,05,05,02,47,14.50
2009,05,05,02,48,17.70
2009,05,05,02,49,16.10
2009,05,05,02,50,19.30
2009,05,05,02,51,17.70
2009,05,05,02,52,16.10
2009,05,05,02,53,22.50
2009,05,05,02,54,12.90
2009,05,05,02,55,29.00
2009,05,05,02,56,22.50
2009,05,05,02,57,17.70
2009,05,05,02,58,16.10
2009,05,05,02,59,19.30
2009,05,05,03,00,16.10
2009,05,05,03,01,14.50
2009,05,05,03,02,19.30
2009,05,05,03,03,14.50
2009,05,05,03,04,14.50
2009,05,05,03,05,11.30
2009,05,05,03,06,9.60
2009,05,05,03,07,9.60
2009,05,05,03,08,3.20
2009,05,05,03,09,11.30
2009,05,05,03,10,9.60
2009,05,05,03,11,3.20
2009,05,05,03,12,3.20
2009,05,05,03,13,8.10
2009,05,05,03,14,9.60
2009,05,05,03,15,11.30
2009,05,05,03,16,9.60
2009,05,05,03,17,14.50
2009,05,05,03,18,4.80
2009,05,05,03,19,8.10
2009,05,05,03,20,1.60
2009,05,05,03,21,1.60
2009,05,05,03,22,3.20
2009,05,05,03,23,6.40
2009,05,05,03,24,0.00
2009,05,05,03,25,0.00
2009,05,05,03,26,0.00
2009,05,05,03,27,6.40
2009,05,05,03,28,3.20
2009,05,05,03,29,3.20
2009,05,05,03,30,4.80
2009,05,05,03,31,6.40
2009,05,05,03,32,3.20
2009,05,05,03,33,0.00
2009,05,05,03,34,6.40
2009,05,05,03,35,8.10
2009,05,05,03,36,8.10
2009,05,05,03,37,9.60
2009,05,05,03,38,9.60
2009,05,05,03,39,11.30
2009,05,05,03,40,11.30
2009,05,05,03,41,12.90
2009,05,05,03,42,6.40
2009,05,05,03,43,11.30
2009,05,05,03,44,11.30
2009,05,05,03,45,8.10
2009,05,05,03,46,3.20
2009,05,05,03,47,0.00
2009,05,05,03,48,0.00
2009,05,05,03,49,0.00
2009,05,05,03,50,4.80
2009,05,05,03,51,6.40
2009,05,05,03,52,6.40
2009,05,05,03,53,9.60
2009,05,05,03,54,6.40
2009,05,05,03,55,4.80
2009,05,05,03,56,12.90
2009,05,05,03,57,11.30
2009,05,05,03,58,9.60
2009,05,05,03,59,6.40
2009,05,05,04,00,6.40
2009,05,05,04,01,4.80
2009,05,05,04,02,6.40
2009,05,05,04,03,6.40
2009,05,05,04,04,8.10
2009,05,05,04,05,6.40
2009,05,05,04,06,8.10
2009,05,05,04,07,11.30
2009,05,05,04,08,9.60
2009,05,05,04,09,3.20
2009,05,05,04,10,8.10
2009,05,05,04,11,8.10
2009,05,05,04,12,8.10
2009,05,05,04,13,6.40
2009,05,05,04,14,8.10
2009,05,05,04,15,8.10
2009,05,05,04,16,9.60
2009,05,05,04,17,9.60
2009,05,05,04,18,11.30
2009,05,05,04,19,9.60
2009,05,05,04,20,8.10
2009,05,05,04,21,9.60
2009,05,05,04,22,9.60
2009,05,05,04,23,12.90
2009,05,05,04,24,11.30
2009,05,05,04,25,12.90
2009,05,05,04,26,16.10
2009,05,05,04,27,12.90
2009,05,05,04,28,14.50
2009,05,05,04,29,12.90
2009,05,05,04,30,17.70
2009,05,05,04,31,20.90
2009,05,05,04,32,17.70
2009,05,05,04,33,20.90
2009,05,05,04,34,19.30
2009,05,05,04,35,22.50
2009,05,05,04,36,17.70
2009,05,05,04,37,20.90
2009,05,05,04,38,17.70
2009,05,05,04,39,19.30
2009,05,05,04,40,24.20
2009,05,05,04,41,37.00
2009,05,05,04,42,49.90
2009,05,05,04,43,22.50
2009,05,05,04,44,20.90
2009,05,05,04,45,17.70
2009,05,05,04,46,29.00
2009,05,05,04,47,17.70
2009,05,05,04,48,25.70
2009,05,05,04,49,24.20
2009,05,05,04,50,30.60
2009,05,05,04,51,24.20
2009,05,05,04,52,22.50
2009,05,05,04,53,30.60
2009,05,05,04,54,17.70
2009,05,05,04,55,20.90
2009,05,05,04,56,22.50
2009,05,05,04,57,12.90
2009,05,05,04,58,25.70
2009,05,05,04,59,29.00
2009,05,05,05,00,29.00
2009,05,05,05,01,17.70
2009,05,05,05,02,19.30
2009,05,05,05,03,20.90
2009,05,05,05,04,19.30
2009,05,05,05,05,11.30
2009,05,05,05,06,22.50
2009,05,05,05,07,14.50
2009,05,05,05,08,22.50
2009,05,05,05,09,19.30
2009,05,05,05,10,19.30
2009,05,05,05,11,17.70
2009,05,05,05,12,17.70
2009,05,05,05,13,33.80
2009,05,05,05,14,24.20
2009,05,05,05,15,22.50
2009,05,05,05,16,22.50
2009,05,05,05,17,29.00
2009,05,05,05,18,19.30
2009,05,05,05,19,20.90
2009,05,05,05,20,19.30
2009,05,05,05,21,14.50
2009,05,05,05,22,32.20
2009,05,05,05,23,37.00
2009,05,05,05,24,17.70
2009,05,05,05,25,14.50
2009,05,05,05,26,25.70
2009,05,05,05,27,29.00
2009,05,05,05,28,11.30
2009,05,05,05,29,9.60
2009,05,05,05,30,22.50
2009,05,05,05,31,17.70
2009,05,05,05,32,38.60
2009,05,05,05,33,24.20
2009,05,05,05,34,25.70
2009,05,05,05,35,33.80
2009,05,05,05,36,24.20
2009,05,05,05,37,22.50
2009,05,05,05,38,20.90
2009,05,05,05,39,19.30
2009,05,05,05,40,19.30
2009,05,05,05,41,22.50
2009,05,05,05,42,19.30
2009,05,05,05,43,24.20
2009,05,05,05,44,17.70
2009,05,05,05,45,17.70
2009,05,05,05,46,14.50
2009,05,05,05,47,22.50
2009,05,05,05,48,14.50
2009,05,05,05,49,20.90
2009,05,05,05,50,14.50
2009,05,05,05,51,16.10
2009,05,05,05,52,22.50
2009,05,05,05,53,16.10
2009,05,05,05,54,17.70
2009,05,05,05,55,16.10
2009,05,05,05,56,37.00
2009,05,05,05,57,32.20
2009,05,05,05,58,24.20
2009,05,05,05,59,19.30
2009,05,05,06,00,17.70
2009,05,05,06,01,22.50
2009,05,05,06,02,20.90
2009,05,05,06,03,20.90
2009,05,05,06,04,20.90
2009,05,05,06,05,19.30
2009,05,05,06,06,14.50
2009,05,05,06,07,30.60
2009,05,05,06,08,25.70
2009,05,05,06,09,22.50
2009,05,05,06,10,22.50
2009,05,05,06,11,19.30
2009,05,05,06,12,30.60
2009,05,05,06,13,24.20
2009,05,05,06,14,35.40
2009,05,05,06,15,17.70
2009,05,05,06,16,24.20
2009,05,05,06,17,16.10
2009,05,05,06,18,22.50
2009,05,05,06,19,32.20
2009,05,05,06,20,37.00
2009,05,05,06,21,20.90
2009,05,05,06,22,30.60
2009,05,05,06,23,19.30
2009,05,05,06,24,20.90
2009,05,05,06,25,16.10
2009,05,05,06,26,25.70
2009,05,05,06,27,22.50
2009,05,05,06,28,38.60
2009,05,05,06,29,24.20
2009,05,05,06,30,35.40
2009,05,05,06,31,17.70
2009,05,05,06,32,12.90
2009,05,05,06,33,14.50
2009,05,05,06,34,29.00
2009,05,05,06,35,22.50
2009,05,05,06,36,32.20
2009,05,05,06,37,24.20
2009,05,05,06,38,29.00
2009,05,05,06,39,22.50
2009,05,05,06,40,16.10
2009,05,05,06,41,19.30
2009,05,05,06,42,17.70
2009,05,05,06,43,29.00
2009,05,05,06,44,24.20
2009,05,05,06,45,32.20
2009,05,05,06,46,22.50
2009,05,05,06,47,16.10
2009,05,05,06,48,24.20
2009,05,05,06,49,22.50
2009,05,05,06,50,32.20
2009,05,05,06,51,33.80
2009,05,05,06,52,32.20
2009,05,05,06,53,30.60
2009,05,05,06,54,22.50
2009,05,05,06,55,35.40
2009,05,05,06,56,22.50
2009,05,05,06,57,19.30
2009,05,05,06,58,32.20
2009,05,05,06,59,29.00
2009,05,05,07,00,22.50
2009,05,05,07,01,19.30
2009,05,05,07,02,33.80
2009,05,05,07,03,32.20
2009,05,05,07,04,30.60
2009,05,05,07,05,29.00
2009,05,05,07,06,20.90
2009,05,05,07,07,14.50
2009,05,05,07,08,33.80
2009,05,05,07,09,24.20
2009,05,05,07,10,32.20
2009,05,05,07,11,30.60
2009,05,05,07,12,22.50
2009,05,05,07,13,30.60
2009,05,05,07,14,25.70
2009,05,05,07,15,29.00
2009,05,05,07,16,29.00
2009,05,05,07,17,33.80
2009,05,05,07,18,16.10
2009,05,05,07,19,24.20
2009,05,05,07,20,20.90
2009,05,05,07,21,22.50
2009,05,05,07,22,24.20
2009,05,05,07,23,19.30
2009,05,05,07,24,22.50
2009,05,05,07,25,22.50
2009,05,05,07,26,24.20
2009,05,05,07,27,24.20
2009,05,05,07,28,24.20
2009,05,05,07,29,30.60
2009,05,05,07,30,24.20
2009,05,05,07,31,35.40
2009,05,05,07,32,17.70
2009,05,05,07,33,35.40
2009,05,05,07,34,17.70
2009,05,05,07,35,32.20
2009,05,05,07,36,30.60
2009,05,05,07,37,33.80
2009,05,05,07,38,19.30
2009,05,05,07,39,19.30
2009,05,05,07,40,19.30
2009,05,05,07,41,17.70
2009,05,05,07,42,19.30
2009,05,05,07,43,29.00
2009,05,05,07,44,24.20
2009,05,05,07,45,19.30
2009,05,05,07,46,22.50
2009,05,05,07,47,35.40
2009,05,05,07,48,33.80
2009,05,05,07,49,17.70
2009,05,05,07,50,24.20
2009,05,05,07,51,24.20
2009,05,05,07,52,19.30
2009,05,05,07,53,29.00
2009,05,05,07,54,33.80
2009,05,05,07,55,30.60
2009,05,05,07,56,30.60
2009,05,05,07,57,33.80
2009,05,05,07,58,30.60
2009,05,05,07,59,30.60
2009,05,05,08,00,20.90
2009,05,05,08,01,20.90
2009,05,05,08,02,19.30
2009,05,05,08,03,24.20
2009,05,05,08,04,35.40
2009,05,05,08,05,14.50
2009,05,05,08,06,16.10
2009,05,05,08,07,25.70
2009,05,05,08,08,20.90
2009,05,05,08,09,12.90
2009,05,05,08,10,25.70
2009,05,05,08,11,32.20
2009,05,05,08,12,24.20
2009,05,05,08,13,20.90
2009,05,05,08,14,20.90
2009,05,05,08,15,20.90
2009,05,05,08,16,14.50
2009,05,05,08,17,20.90
2009,05,05,08,18,16.10
2009,05,05,08,19,12.90
2009,05,05,08,20,32.20
2009,05,05,08,21,17.70
2009,05,05,08,22,32.20
2009,05,05,08,23,25.70
2009,05,05,08,24,22.50
2009,05,05,08,25,22.50
2009,05,05,08,26,30.60
2009,05,05,08,27,16.10
2009,05,05,08,28,20.90
2009,05,05,08,29,22.50
2009,05,05,08,30,20.90
2009,05,05,08,31,8.10
2009,05,05,08,32,22.50
2009,05,05,08,33,17.70
2009,05,05,08,34,19.30
2009,05,05,08,35,12.90
2009,05,05,08,36,11.30
2009,05,05,08,37,14.50
2009,05,05,08,38,14.50
2009,05,05,08,39,25.70
2009,05,05,08,40,20.90
2009,05,05,08,41,24.20
2009,05,05,08,42,20.90
2009,05,05,08,43,17.70
2009,05,05,08,44,17.70
2009,05,05,08,45,14.50
2009,05,05,08,46,9.60
2009,05,05,08,47,17.70
2009,05,05,08,48,20.90
2009,05,05,08,49,11.30
2009,05,05,08,50,19.30
2009,05,05,08,51,19.30
2009,05,05,08,52,12.90
2009,05,05,08,53,19.30
2009,05,05,08,54,16.10
2009,05,05,08,55,14.50
2009,05,05,08,56,14.50
2009,05,05,08,57,9.60
2009,05,05,08,58,9.60
2009,05,05,08,59,20.90
2009,05,05,09,00,20.90
2009,05,05,09,01,20.90
2009,05,05,09,02,20.90
2009,05,05,09,03,12.90
2009,05,05,09,04,24.20
2009,05,05,09,05,19.30
2009,05,05,09,06,9.60
2009,05,05,09,07,14.50
2009,05,05,09,08,30.60
2009,05,05,09,09,24.20
2009,05,05,09,10,25.70
2009,05,05,09,11,25.70
2009,05,05,09,12,17.70
2009,05,05,09,13,8.10
2009,05,05,09,14,19.30
2009,05,05,09,15,20.90
2009,05,05,09,16,19.30
2009,05,05,09,17,12.90
2009,05,05,09,18,14.50
2009,05,05,09,19,20.90
2009,05,05,09,20,22.50
2009,05,05,09,21,19.30
2009,05,05,09,22,32.20
2009,05,05,09,23,30.60
2009,05,05,09,24,17.70
2009,05,05,09,25,17.70
2009,05,05,09,26,20.90
2009,05,05,09,27,19.30
2009,05,05,09,28,19.30
2009,05,05,09,29,16.10
2009,05,05,09,30,11.30
2009,05,05,09,31,17.70
2009,05,05,09,32,16.10
2009,05,05,09,33,19.30
2009,05,05,09,34,11.30
2009,05,05,09,35,11.30
2009,05,05,09,36,24.20
2009,05,05,09,37,29.00
2009,05,05,09,38,33.80
2009,05,05,09,39,17.70
2009,05,05,09,40,14.50
2009,05,05,09,41,9.60
2009,05,05,09,42,20.90
2009,05,05,09,43,8.10
2009,05,05,09,44,29.00
2009,05,05,09,45,14.50
2009,05,05,09,46,24.20
2009,05,05,09,47,8.10
2009,05,05,09,48,19.30
2009,05,05,09,49,16.10
2009,05,05,09,50,16.10
2009,05,05,09,51,16.10
2009,05,05,09,52,20.90
2009,05,05,09,53,20.90
2009,05,05,09,54,22.50
2009,05,05,09,55,14.50
2009,05,05,09,56,14.50
2009,05,05,09,57,16.10
2009,05,05,09,58,30.60
2009,05,05,09,59,41.80
2009,05,05,10,00,14.50
2009,05,05,10,01,20.90
2009,05,05,10,02,25.70
2009,05,05,10,03,19.30
2009,05,05,10,04,29.00
2009,05,05,10,05,19.30
2009,05,05,10,06,22.50
2009,05,05,10,07,17.70
2009,05,05,10,08,25.70
2009,05,05,10,09,9.60
2009,05,05,10,10,19.30
2009,05,05,10,11,14.50
2009,05,05,10,12,32.20
2009,05,05,10,13,24.20
2009,05,05,10,14,30.60
2009,05,05,10,15,25.70
2009,05,05,10,16,16.10
2009,05,05,10,17,14.50
2009,05,05,10,18,29.00
2009,05,05,10,19,37.00
2009,05,05,10,20,17.70
2009,05,05,10,21,20.90
2009,05,05,10,22,20.90
2009,05,05,10,23,20.90
2009,05,05,10,24,29.00
2009,05,05,10,25,24.20
2009,05,05,10,26,25.70
2009,05,05,10,27,17.70
2009,05,05,10,28,16.10
2009,05,05,10,29,17.70
2009,05,05,10,30,19.30
2009,05,05,10,31,17.70
2009,05,05,10,32,32.20
2009,05,05,10,33,19.30
2009,05,05,10,34,11.30
2009,05,05,10,35,12.90
2009,05,05,10,36,22.50
2009,05,05,10,37,24.20
2009,05,05,10,38,33.80
2009,05,05,10,39,17.70
2009,05,05,10,40,25.70
2009,05,05,10,41,19.30
2009,05,05,10,42,20.90
2009,05,05,10,43,24.20
2009,05,05,10,44,32.20
2009,05,05,10,45,17.70
2009,05,05,10,46,16.10
2009,05,05,10,47,29.00
2009,05,05,10,48,16.10
2009,05,05,10,49,14.50
2009,05,05,10,50,14.50
2009,05,05,10,51,19.30
2009,05,05,10,52,11.30
2009,05,05,10,53,20.90
2009,05,05,10,54,19.30
2009,05,05,10,55,32.20
2009,05,05,10,56,30.60
2009,05,05,10,57,38.60
2009,05,05,10,58,30.60
2009,05,05,10,59,25.70
2009,05,05,11,00,30.60
2009,05,05,11,01,16.10
2009,05,05,11,02,19.30
2009,05,05,11,03,17.70
2009,05,05,11,04,45.10
2009,05,05,11,05,43.50
2009,05,05,11,06,20.90
2009,05,05,11,07,24.20
2009,05,05,11,08,12.90
2009,05,05,11,09,25.70
2009,05,05,11,10,19.30
2009,05,05,11,11,14.50
2009,05,05,11,12,12.90
2009,05,05,11,13,25.70
2009,05,05,11,14,35.40
2009,05,05,11,15,20.90
2009,05,05,11,16,24.20
2009,05,05,11,17,16.10
2009,05,05,11,18,19.30
2009,05,05,11,19,19.30
2009,05,05,11,20,19.30
2009,05,05,11,21,20.90
2009,05,05,11,22,19.30
2009,05,05,11,23,19.30
2009,05,05,11,24,38.60
2009,05,05,11,25,25.70
2009,05,05,11,26,22.50
2009,05,05,11,27,17.70
2009,05,05,11,28,25.70
2009,05,05,11,29,14.50
2009,05,05,11,30,12.90
2009,05,05,11,31,14.50
2009,05,05,11,32,17.70
2009,05,05,11,33,9.60
2009,05,05,11,34,8.10
2009,05,05,11,35,6.40
2009,05,05,11,36,6.40
2009,05,05,11,37,4.80
2009,05,05,11,38,12.90
2009,05,05,11,39,12.90
2009,05,05,11,40,11.30
2009,05,05,11,41,17.70
2009,05,05,11,42,9.60
2009,05,05,11,43,9.60
2009,05,05,11,44,8.10
2009,05,05,11,45,3.20
2009,05,05,11,46,11.30
2009,05,05,11,47,9.60
2009,05,05,11,48,9.60
2009,05,05,11,49,9.60
2009,05,05,11,50,12.90
2009,05,05,11,51,12.90
2009,05,05,11,52,9.60
2009,05,05,11,53,14.50
2009,05,05,11,54,24.20
2009,05,05,11,55,24.20
2009,05,05,11,56,16.10
2009,05,05,11,57,14.50
2009,05,05,11,58,11.30
2009,05,05,11,59,14.50
2009,05,05,12,00,16.10
2009,05,05,12,01,22.50
2009,05,05,12,02,35.40
2009,05,05,12,03,29.00
2009,05,05,12,04,20.90
2009,05,05,12,05,25.70
2009,05,05,12,06,20.90
2009,05,05,12,07,11.30
2009,05,05,12,08,14.50
2009,05,05,12,09,16.10
2009,05,05,12,10,16.10
2009,05,05,12,11,24.20
2009,05,05,12,12,19.30
2009,05,05,12,13,22.50
2009,05,05,12,14,32.20
2009,05,05,12,15,19.30
2009,05,05,12,16,12.90
2009,05,05,12,17,24.20
2009,05,05,12,18,16.10
2009,05,05,12,19,35.40
2009,05,05,12,20,37.00
2009,05,05,12,21,19.30
2009,05,05,12,22,24.20
2009,05,05,12,23,25.70
2009,05,05,12,24,19.30
2009,05,05,12,25,45.10
2009,05,05,12,26,16.10
2009,05,05,12,27,29.00
2009,05,05,12,28,16.10
2009,05,05,12,29,30.60
2009,05,05,12,30,25.70
2009,05,05,12,31,38.60
2009,05,05,12,32,25.70
2009,05,05,12,33,12.90
2009,05,05,12,34,51.50
2009,05,05,12,35,40.20
2009,05,05,12,36,33.80
2009,05,05,12,37,24.20
2009,05,05,12,38,29.00
2009,05,05,12,39,43.50
2009,05,05,12,40,19.30
2009,05,05,12,41,24.20
2009,05,05,12,42,37.00
2009,05,05,12,43,19.30
2009,05,05,12,44,22.50
2009,05,05,12,45,29.00
2009,05,05,12,46,16.10
2009,05,05,12,47,22.50
2009,05,05,12,48,49.90
2009,05,05,12,49,24.20
2009,05,05,12,50,30.60
2009,05,05,12,51,22.50
2009,05,05,12,52,24.20
2009,05,05,12,53,14.50
2009,05,05,12,54,19.30
2009,05,05,12,55,29.00
2009,05,05,12,56,20.90
2009,05,05,12,57,29.00
2009,05,05,12,58,24.20
2009,05,05,12,59,48.30
2009,05,05,13,00,30.60
2009,05,05,13,01,37.00
2009,05,05,13,02,33.80
2009,05,05,13,03,33.80
2009,05,05,13,04,22.50
2009,05,05,13,05,22.50
2009,05,05,13,06,30.60
2009,05,05,13,07,29.00
2009,05,05,13,08,29.00
2009,05,05,13,09,29.00
2009,05,05,13,10,22.50
2009,05,05,13,11,33.80
2009,05,05,13,12,19.30
2009,05,05,13,13,33.80
2009,05,05,13,14,16.10
2009,05,05,13,15,19.30
2009,05,05,13,16,49.90
2009,05,05,13,17,40.20
2009,05,05,13,18,41.80
2009,05,05,13,19,32.20
2009,05,05,13,20,32.20
2009,05,05,13,21,33.80
2009,05,05,13,22,32.20
2009,05,05,13,23,32.20
2009,05,05,13,24,30.60
2009,05,05,13,25,32.20
2009,05,05,13,26,30.60
2009,05,05,13,27,14.50
2009,05,05,13,28,35.40
2009,05,05,13,29,35.40
2009,05,05,13,30,35.40
2009,05,05,13,31,43.50
2009,05,05,13,32,29.00
2009,05,05,13,33,32.20
2009,05,05,13,34,32.20
2009,05,05,13,35,29.00
2009,05,05,13,36,40.20
2009,05,05,13,37,40.20
2009,05,05,13,38,38.60
2009,05,05,13,39,45.10
2009,05,05,13,40,49.90
2009,05,05,13,41,30.60
2009,05,05,13,42,32.20
2009,05,05,13,43,24.20
2009,05,05,13,44,33.80
2009,05,05,13,45,33.80
2009,05,05,13,46,30.60
2009,05,05,13,47,22.50
2009,05,05,13,48,46.70
2009,05,05,13,49,37.00
2009,05,05,13,50,35.40
2009,05,05,13,51,30.60
2009,05,05,13,52,32.20
2009,05,05,13,53,25.70
2009,05,05,13,54,45.10
2009,05,05,13,55,12.90
2009,05,05,13,56,29.00
2009,05,05,13,57,25.70
2009,05,05,13,58,37.00
2009,05,05,13,59,48.30
2009,05,05,14,00,57.90
2009,05,05,14,01,45.10
2009,05,05,14,02,20.90
2009,05,05,14,03,29.00
2009,05,05,14,04,32.20
2009,05,05,14,05,37.00
2009,05,05,14,06,25.70
2009,05,05,14,07,30.60
2009,05,05,14,08,29.00
2009,05,05,14,09,32.20
2009,05,05,14,10,24.20
2009,05,05,14,11,33.80
2009,05,05,14,12,22.50
2009,05,05,14,13,25.70
2009,05,05,14,14,35.40
2009,05,05,14,15,38.60
2009,05,05,14,16,38.60
2009,05,05,14,17,33.80
2009,05,05,14,18,35.40
2009,05,05,14,19,43.50
2009,05,05,14,20,20.90
2009,05,05,14,21,25.70
2009,05,05,14,22,14.50
2009,05,05,14,23,24.20
2009,05,05,14,24,35.40
2009,05,05,14,25,24.20
2009,05,05,14,26,20.90
2009,05,05,14,27,32.20
2009,05,05,14,28,19.30
2009,05,05,14,29,25.70
2009,05,05,14,30,37.00
2009,05,05,14,31,24.20
2009,05,05,14,32,16.10
2009,05,05,14,33,11.30
2009,05,05,14,34,11.30
2009,05,05,14,35,24.20
2009,05,05,14,36,16.10
2009,05,05,14,37,22.50
2009,05,05,14,38,29.00
2009,05,05,14,39,16.10
2009,05,05,14,40,12.90
2009,05,05,14,41,8.10
2009,05,05,14,42,14.50
2009,05,05,14,43,12.90
2009,05,05,14,44,17.70
2009,05,05,14,45,19.30
2009,05,05,14,46,24.20
2009,05,05,14,47,25.70
2009,05,05,14,48,24.20
2009,05,05,14,49,22.50
2009,05,05,14,50,11.30
2009,05,05,14,51,9.60
2009,05,05,14,52,6.40
2009,05,05,14,53,11.30
2009,05,05,14,54,3.20
2009,05,05,14,55,9.60
2009,05,05,14,56,12.90
2009,05,05,14,57,9.60
2009,05,05,14,58,9.60
2009,05,05,14,59,11.30
2009,05,05,15,00,16.10
2009,05,05,15,01,14.50
2009,05,05,15,02,11.30
2009,05,05,15,03,16.10
2009,05,05,15,04,11.30
2009,05,05,15,05,11.30
2009,05,05,15,06,17.70
2009,05,05,15,07,19.30
2009,05,05,15,08,11.30
2009,05,05,15,09,16.10
2009,05,05,15,10,16.10
2009,05,05,15,11,16.10
2009,05,05,15,12,17.70
2009,05,05,15,13,12.90
2009,05,05,15,14,9.60
2009,05,05,15,15,17.70
2009,05,05,15,16,17.70
2009,05,05,15,17,9.60
2009,05,05,15,18,12.90
2009,05,05,15,19,29.00
2009,05,05,15,20,29.00
2009,05,05,15,21,17.70
2009,05,05,15,22,17.70
2009,05,05,15,23,12.90
2009,05,05,15,24,11.30
2009,05,05,15,25,19.30
2009,05,05,15,26,25.70
2009,05,05,15,27,25.70
2009,05,05,15,28,16.10
2009,05,05,15,29,11.30
2009,05,05,15,30,17.70
2009,05,05,15,31,12.90
2009,05,05,15,32,20.90
2009,05,05,15,33,17.70
2009,05,05,15,34,11.30
2009,05,05,15,35,11.30
2009,05,05,15,36,9.60
2009,05,05,15,37,11.30
2009,05,05,15,38,17.70
2009,05,05,15,39,19.30
2009,05,05,15,40,12.90
2009,05,05,15,41,19.30
2009,05,05,15,42,17.70
2009,05,05,15,43,9.60
2009,05,05,15,44,20.90
2009,05,05,15,45,17.70
2009,05,05,15,46,20.90
2009,05,05,15,47,24.20
2009,05,05,15,48,17.70
2009,05,05,15,49,9.60
2009,05,05,15,50,9.60
2009,05,05,15,51,29.00
2009,05,05,15,52,17.70
2009,05,05,15,53,17.70
2009,05,05,15,54,32.20
2009,05,05,15,55,22.50
2009,05,05,15,56,29.00
2009,05,05,15,57,20.90
2009,05,05,15,58,11.30
2009,05,05,15,59,14.50
2009,05,05,16,00,22.50
2009,05,05,16,01,20.90
2009,05,05,16,02,20.90
2009,05,05,16,03,17.70
2009,05,05,16,04,14.50
2009,05,05,16,05,25.70
2009,05,05,16,06,16.10
2009,05,05,16,07,20.90
2009,05,05,16,08,16.10
2009,05,05,16,09,24.20
2009,05,05,16,10,19.30
2009,05,05,16,11,17.70
2009,05,05,16,12,17.70
2009,05,05,16,13,17.70
2009,05,05,16,14,20.90
2009,05,05,16,15,22.50
2009,05,05,16,16,19.30
2009,05,05,16,17,16.10
2009,05,05,16,18,33.80
2009,05,05,16,19,22.50
2009,05,05,16,20,33.80
2009,05,05,16,21,25.70
2009,05,05,16,22,25.70
2009,05,05,16,23,22.50
2009,05,05,16,24,30.60
2009,05,05,16,25,32.20
2009,05,05,16,26,25.70
2009,05,05,16,27,20.90
2009,05,05,16,28,24.20
2009,05,05,16,29,25.70
2009,05,05,16,30,19.30
2009,05,05,16,31,14.50
2009,05,05,16,32,12.90
2009,05,05,16,33,14.50
2009,05,05,16,34,22.50
2009,05,05,16,35,32.20
2009,05,05,16,36,20.90
2009,05,05,16,37,19.30
2009,05,05,16,38,11.30
2009,05,05,16,39,11.30
2009,05,05,16,40,14.50
2009,05,05,16,41,12.90
2009,05,05,16,42,19.30
2009,05,05,16,43,20.90
2009,05,05,16,44,14.50
2009,05,05,16,45,29.00
2009,05,05,16,46,20.90
2009,05,05,16,47,19.30
2009,05,05,16,48,19.30
2009,05,05,16,49,24.20
2009,05,05,16,50,24.20
2009,05,05,16,51,14.50
2009,05,05,16,52,30.60
2009,05,05,16,53,29.00
2009,05,05,16,54,14.50
2009,05,05,16,55,12.90
2009,05,05,16,56,29.00
2009,05,05,16,57,17.70
2009,05,05,16,58,32.20
2009,05,05,16,59,32.20
2009,05,05,17,00,17.70
2009,05,05,17,01,12.90
2009,05,05,17,02,20.90
2009,05,05,17,03,22.50
2009,05,05,17,04,19.30
2009,05,05,17,05,22.50
2009,05,05,17,06,17.70
2009,05,05,17,07,17.70
2009,05,05,17,08,32.20
2009,05,05,17,09,20.90
2009,05,05,17,10,17.70
2009,05,05,17,11,17.70
2009,05,05,17,12,22.50
2009,05,05,17,13,29.00
2009,05,05,17,14,19.30
2009,05,05,17,15,17.70
2009,05,05,17,16,19.30
2009,05,05,17,17,19.30
2009,05,05,17,18,17.70
2009,05,05,17,19,14.50
2009,05,05,17,20,20.90
2009,05,05,17,21,12.90
2009,05,05,17,22,20.90
2009,05,05,17,23,16.10
2009,05,05,17,24,25.70
2009,05,05,17,25,12.90
2009,05,05,17,26,17.70
2009,05,05,17,27,19.30
2009,05,05,17,28,17.70
2009,05,05,17,29,14.50
2009,05,05,17,30,24.20
2009,05,05,17,31,17.70